Location: Colle Pacifico
(43.5333°N, 13.3167°E)
Time: 09:35:54
(UTC+00:00)

STARLINK-1014 - Pass Details

Date: 07 June 2020
Orbit: 546 x 553 km, 53.0° (Epoch: 05 July)

Event Time Altitude Azimuth Distance (km) Brightness Sun altitude
Exits shadow 00:09:36 - 111° (ESE) 2,214 6.6 -22.1°
Enters shadow 01:09:45 -67° 233° (SW) 12,318 10.4 -17.8°
Maximum altitude 01:47:21 43° 137° (SE) 771 4.3 -14.0°
